Regional Weather Roundup
Issued by NWS

Home | Current Version | Previous Version | Text Only | Print | Product List | Glossary On
Versions: 1 2 3 4 5 6 7 8 9 10 11 12 13 14 15 16 17 18 19 20 21 22 23 24 25 26 27 28 29 30 31 32 33 34 35 36 37 38 39 40 41 42 43 44 45 46 47 48
000
ASUS42 KTBW 071316
RWRFL
FLORIDA REGIONAL WEATHER ROUNDUP
NATIONAL WEATHER SERVICE TAMPA BAY RUSKIN FL
900 AM EDT TUE JUL 07 2015

NOTE: "FAIR" INDICATES FEW OR NO CLOUDS BELOW 12,000 FEET WITH NO
SIGNIFICANT WEATHER AND/OR OBSTRUCTIONS TO VISIBILITY.


FLZ001>010-012>015-112-114-115-071400-
PANHANDLE FLORIDA

CITY           SKY/WX    TMP DP  RH WIND       PRES   REMARKS
PENSACOLA      SUNNY     82  75  79 W5        30.16R
PENSACOLA NAS  MOSUNNY   81  76  84 CALM      30.15R
MILTON NAS     MOSUNNY   79  75  87 CALM      30.17
CRESTVIEW      SUNNY     79  74  84 CALM      30.19R
DUKE FIELD     FAIR      78  72  82 CALM      30.17R
VALPARAISO     MOSUNNY   78  71  78 CALM      30.17R
MARY ESTHER    SUNNY     79  73  80 N1        30.16R
TRI COUNTY     FAIR      78  73  84 VRB3      30.19R
PANAMA CITY    FAIR      81  69  67 CALM      30.17R
TYNDALL AFB    SUNNY     82  77  87 CALM      30.18R
APALACHICOLA   SUNNY     83  76  79 NW3       30.18R

STATION/POSITION SKY/WX   TEMP    WIND        PRES    WAVE   SWELL
                          AIR SEA DIR/SP/G            HT/PER HT/PER
                          (F)     (DEG/KT/KT) (MB)    (FT/S) (FT/S)
30.1N   87.6W              85 85  220/  6/  8 1020.4R   2/ 5   2/ 5
29.2N   88.2W              84 85  180/  8/ 10 1021.2R   2/ 6   2/ 6
28.8N   86.0W              83 84  310/  2/  2 1021.9R   1/ 6   2/ 6
PANAMA CITY BEAC           79 82   30/  2/  3 1021.2R
CAPE SAN BLAS    NOT AVBL
TOWER C                    81     350/  5/  6 1021.7R
28.5N   84.5W              83 85  350/  4/  6 1021.9R   1/ 9   2/ 9

$$
FLZ011-016>038-118-127-128-134-139-239-071400-
NORTH FLORIDA

CITY           SKY/WX    TMP DP  RH WIND       PRES   REMARKS
MARIANNA       MOSUNNY   77  76  96 CALM      30.17R
TALLAHASSEE    PTSUNNY   81  73  76 NW3       30.18R
PERRY            N/A     80  79  97 CALM      30.19R
CROSS CITY       N/A     80  74  81 S3        30.18R
LAKE CITY      FAIR      77  72  83 CALM      30.19R
GAINESVILLE    SUNNY     79  71  76 CALM      30.19R
MAYPORT NAS    MOSUNNY   79  72  79 SW3       30.18R
JACKSONVILLE   MOSUNNY   78  72  81 W3        30.18R
JAX NAS        MOSUNNY   81  70  69 SW3       30.19R
JAX CRAIG      SUNNY     79  71  76 SW3       30.18R
JAX CECIL      SUNNY     77  72  83 VRB5      30.19R
FERNANDINA BEA FAIR      81  72  74 CALM      30.17R
ST AUGUSTINE   MOSUNNY   79  72  79 SW7       30.20R

STATION/POSITION SKY/WX   TEMP    WIND        PRES    WAVE   SWELL
                          AIR SEA DIR/SP/G            HT/PER HT/PER
                          (F)     (DEG/KT/KT) (MB)    (FT/S) (FT/S)
SHELL POINT                77     350/  4/  5   N/A
KEATON BEACH               81     290/  2/  2 1022.0R
CEDAR KEY                  83      80/  2/  2 1022.3R
FERNANDINA                 76 82  220/  4/  5 1020.9R
30.7N   81.3W                 77                N/A     2/ 8
MAYPORT                    76 80  220/  2/  3 1021.8R
31.4N   80.9W              78 79  220/  6/  8 1021.9R   2/ 8   2/ 8
ST AUGUSTINE               72 71  140/  4/  5 1023.1R

$$
FLZ040-043>046-052-053-057-058-063-144-071400-
INTERIOR CENTRAL FLORIDA

CITY           SKY/WX    TMP DP  RH WIND       PRES   REMARKS
OCALA          MOSUNNY   77  70  78 SW5       30.20R
THE VILLAGES     N/A    N/A N/A N/A CALM      30.10R
LEESBURG       SUNNY     80  72  76 S5        30.20R
SANFORD        MOSUNNY   77  73  87 SE3       30.19R
ORLANDO EXEC   PTSUNNY   80  74  81 CALM      30.19R
ORLANDO INTL   MOSUNNY   80  73  79 CALM      30.20R
KISSIMMEE      SUNNY     75  73  94 CALM      30.20R
WINTER HAVEN   SUNNY     81  71  71 S6        30.21R
LAKELAND       SUNNY     81  73  78 S3        30.20R
OKEECHOBEE     SUNNY     77  72  83 CALM      30.19R

$$
FLZ041-047-054-059-064-141-147-071400-
EAST CENTRAL FLORIDA

CITY           SKY/WX    TMP DP  RH WIND       PRES   REMARKS
ORMOND BEACH   MOSUNNY   75  72  88 CALM      30.19R
DAYTONA BEACH  MOSUNNY   78  72  81 CALM      30.20R
DELAND           N/A     79  72  78 CALM      30.20S
NEW SMYRNA BEA MOSUNNY   77  70  78 CALM      30.20R
JFK SPACE CTR  SUNNY     78  71  76 W1        30.18R HAZE
TITUSVILLE     MOSUNNY   75  68  78 CALM      30.20R
CAPE CANAVERAL SUNNY     78  76  94 N2        30.18R
PATRICK AFB    SUNNY     80  71  74 NE5       30.18R
MELBOURNE      SUNNY     80  70  71 CALM      30.19R
VERO BEACH     MOSUNNY   79  73  82 CALM      30.19R
FT PIERCE      MOSUNNY   82  75  79 VRB3      30.18R
STUART         PTSUNNY   81  72  74 CALM      30.19R

STATION/POSITION SKY/WX   TEMP    WIND        PRES    WAVE   SWELL
                          AIR SEA DIR/SP/G            HT/PER HT/PER
                          (F)     (DEG/KT/KT) (MB)    (FT/S) (FT/S)
28.5N   80.2W              80 84  330/  6/  6 1022.3R
28.9N   78.5W              81 83  220/ 12/ 16 1022.2R
TRIDENT PIER               77 77  340/  2/  2 1022.3R
28.4N   80.5W                 78                N/A     2/ 8
27.5N   80.2W                 80                N/A     1/ 7

$$
FLZ050-056-061-142-242-148-248-149-249-151-251-155-255-
160-260-071400-
WEST CENTRAL FLORIDA

CITY           SKY/WX    TMP DP  RH WIND       PRES   REMARKS
CRYSTAL RIVER  FAIR      81  72  74 CALM      30.19R
INVERNESS      FAIR     N/A N/A N/A CALM      30.20R
BROOKSVILLE    MOSUNNY   78  71  79 S6        30.20R
ZEPHYRHILLS    FAIR      77  73  88 CALM      30.20R
CLEARWATER     CLOUDY    79  69  71 N5        30.19S
TAMPA INTL     PTSUNNY   79  67  66 CALM      30.20S
TAMPA EXEC     PTSUNNY   79  72  78 CALM      30.20R
PLANT CITY     SUNNY     82  75  78 S3        30.22R
MACDILL AFB    DRIZZLE   81  73  78 NE5       30.20R
PETER O KNIGHT PTSUNNY   82  72  69 NW3       30.20R
ST PETERSBURG  PTSUNNY   81  73  76 NE8       30.19R
SARASOTA       SUNNY     81  73  76 E7        30.17R
VENICE         FAIR      81  73  78 E7        30.18S

STATION/POSITION SKY/WX   TEMP    WIND        PRES    WAVE   SWELL
                          AIR SEA DIR/SP/G            HT/PER HT/PER
                          (F)     (DEG/KT/KT) (MB)    (FT/S) (FT/S)
CEDAR KEY                  83      80/  2/  2 1022.3R
28.5N   84.5W              83 85  350/  4/  6 1021.9R   1/ 9   2/ 9
27.3N   84.2W                 86                N/A     2/ 4
CLEARWATER BEACH NOT AVBL
MIDDLE TAMPA BAY                  130/  9/ 11 1021.7R
VENICE                     76 88   80/  7/  9 1021.2R

$$
FLZ066-069-070-075>078-162-262-165-265-071400-
SOUTHWEST FLORIDA AND KEYS

CITY           SKY/WX    TMP DP  RH WIND       PRES   REMARKS
PUNTA GORDA    SUNNY     79  75  87 E3        30.19R
FT MYERS       SUNNY     80  75  84 CALM      30.16R
SOUTHWEST INTL SUNNY     79  74  84 NE7       30.17R
NAPLES         SUNNY     75  73  94 NE7       30.16
MARCO ISLAND   SUNNY     81  73  78 NE5       30.16R
MARATHON       SUNNY     87  76  69 SE9       30.14R HX  97
KEY WEST NAS   MOSUNNY   86  73  65 SE13      30.13R
KEY WEST INTL  SUNNY     86  75  69 SE12      30.14R HX  95

STATION/POSITION SKY/WX   TEMP    WIND        PRES    WAVE   SWELL
                          AIR SEA DIR/SP/G            HT/PER HT/PER
                          (F)     (DEG/KT/KT) (MB)    (FT/S) (FT/S)
VENICE                     76 88   80/  7/  9 1021.2R
NAPLES                        86              1021.8R
26.0N   85.6W              85 85   70/  6/  8 1020.7R   3/10   2/10
DRY TORTUGAS               85     110/ 10/ 11 1019.9R
NW FL BAY                  81      60/  9/ 10 1020.5
SAND KEY                   84     130/ 14/ 16 1020.3R
SOMBRERO KEY               85     130/ 13/ 14 1021.3R
LONG KEY                   85 86  150/  8/ 11 1021.5R
MOLASSES REEF              84 85  130/ 10/ 11 1020.9R

$$
FLZ067-068-071>074-168-172>174-071400-
SOUTHEAST FLORIDA

CITY           SKY/WX    TMP DP  RH WIND       PRES   REMARKS
W PALM BEACH   PTSUNNY   83  70  64 SE7       30.18R THUNDER
FT LAUDER-EXEC MOSUNNY   85  73  67 SE7       30.16R
FT LAUDERDALE  PTSUNNY   84  75  74 S9        30.15R
POMPANO BEACH  MOSUNNY   84  74  71 S5        30.16R
PEMBROKE PINES SUNNY     85  73  67 SE8       30.17R
OPA LOCKA      MOSUNNY   86  73  65 SE8       30.16R
MIAMI          PTSUNNY   86  72  62 SE10      30.16R
WEST KENDALL   MOSUNNY   85  74  69 SE8       30.15R
HOMESTEAD      SUNNY     86  73  65 SE9       30.15R

STATION/POSITION SKY/WX   TEMP    WIND        PRES    WAVE   SWELL
                          AIR SEA DIR/SP/G            HT/PER HT/PER
                          (F)     (DEG/KT/KT) (MB)    (FT/S) (FT/S)
PORT EVERGLADES            84     140/  8/ 11 1020.7R
VIRGINIA KEY               84 87  150/  8/ 12 1020.5R
LAKE WORTH                 79 85  140/  4/ 10 1020.9R
SETTLEMENT POINT           84     120/  8/  9 1022.5R

$$




USA.gov is the U.S. government's official web portal to all federal, state and local government web resources and services.